Location: Saint-Restitut
(44.3351°N, 4.7915°E)
Time: 13:45:39
(UTC+00:00)

Spot 1 - Pass Details

Date: 03 February 2023
Orbit: 574 x 773 km, 98.8° (Epoch: 19 March)

Event Time Altitude Azimuth Distance (km) Brightness Sun altitude
Exits shadow 18:52:25 54° 29° (NNE) 708 4.1 -21.6°
Maximum altitude 18:53:18 79° 104° (ESE) 591 3.7 -21.8°
Drops below altitude 10° 18:57:21 10° 191° (SSW) 1,881 6.7 -22.5°
Sets 18:59:29 0° 193° (SSW) 2,784 7.6 -22.9°
